Temp
8 8 8 8 8 8 8 8 8 8 8 8 8 8 8 8 8 8 8 10 11 12 12 12 12 12 12 13 12 12 12 14 15 15 16 17 16 18 18 18 18 17 18 19 18
8 8 8 8 7 7 7 7 7 8 8 8 8 8 8 8 8 8 10 11 11 11 12 11 11 11 12 14 12 14 12 14 15 16 15 16 16 18 19 17 18 17 18 17 17
8 8 7 7 7 7 7 7 7 7 8 8 8 8 8 8 6 8 10 10 11 11 12 11 11 12 12 13 13 13 13 15 15 15 16 15 15 17 17 17 16 16 17 17 18
7 7 7 7 7 7 7 7 7 8 8 8 8 8 8 8 10 9 9 9 10 11 12 11 11 12 12 12 13 13 14 14 14 15 14 14 15 15 15 17 18 17 17 17 18
7 7 6 6 6 6 6 7 7 8 8 7 8 8 8 6 7 9 9 10 10 10 9 9 10 11 11 10 12 11 13 13 13 14 14 13 13 13 13 14 15 16 16 18 18
6 6 6 6 6 6 6 7 7 7 7 7 8 8 7 6 8 9 9 10 9 9 9 9 9 10 10 9 10 12 12 12 13 13 13 13 13 13 15 14 14 15 15 18 18
6 6 6 6 6 6 6 7 7 7 7 8 8 8 7 7 8 9 9 9 9 9 8 9 9 8 10 9 10 9 9 10 11 13 13 13 12 13 15 15 14 14 16 17 17
6 6 5 5 6 6 6 7 6 6 7 8 7 8 7 9 8 8 8 8 9 9 9 9 9 7 7 9 9 9 8 9 12 12 12 12 13 15 15 14 14 15 14 17 19
5 5 5 5 6 6 6 6 7 7 8 8 8 7 6 9 8 8 7 7 8 8 8 8 8 6 7 6 6 7 7 9 9 13 12 12 12 13 14 15 14 15 14 16 19
5 5 5 5 5 5 6 7 7 8 8 8 7 7 7 6 7 7 8 7 6 5 5 5 4 4 2 2 1 4 5 6 7 11 11 11 12 14 14 14 13 14 15 14 16
5 5 5 5 5 5 5 5 2 3 3 4 4 5 6 7 7 7 7 6 6 4 3 3 2 1 2 3 4 3 2 2 4 6 7 8 8 8 12 14 12 14 14 14 15
5 5 5 5 5 5 4 2 2 3 2 4 4 4 6 6 4 6 6 4 3 3 3 3 0 2 4 4 3 2 1 1 4 6 7 6 7 10 11 10 11 13 14 13 15
4 5 5 6 6 5 4 3 3 3 2 4 5 6 5 5 4 5 4 3 3 2 2 -0 2 3 4 3 2 1 -0 0 2 4 5 6 5 7 10 11 12 12 13 14 14
4 5 5 6 6 4 4 3 3 3 2 4 4 5 5 4 4 6 6 4 3 1 2 1 2 3 3 3 3 1 3 3 3 2 2 7 5 8 10 11 12 12 13 15 14
4 5 6 6 5 4 3 3 3 3 -0 4 4 6 5 3 3 5 5 4 1 2 0 1 2 2 2 3 3 2 3 2 2 1 1 2 3 5 9 11 11 12 13 15 15
4 6 6 6 5 4 4 4 3 -1 -4 3 4 3 3 4 4 4 3 3 2 2 3 1 3 2 2 4 3 4 3 2 2 1 1 3 3 5 7 10 12 12 14 14 14
5 5 5 5 3 5 5 3 -0 -2 3 3 3 3 3 3 3 2 2 -0 -2 -2 -1 1 2 1 3 1 2 2 1 -2 -0 -0 3 4 3 5 9 11 11 12 13 15 15
6 6 6 5 6 6 4 1 -1 2 2 3 3 2 2 2 2 1 1 -1 -3 -4 -1 -2 -1 0 2 0 0 1 1 -1 1 1 4 6 3 5 8 10 10 11 12 13 14
6 6 5 5 6 6 -1 -3 -1 -0 2 2 2 0 0 2 0 -1 -2 -6 -4 -5 -2 -2 -0 2 3 3 1 2 1 2 2 2 3 6 6 7 9 9 12 11 11 11 12
5 5 4 5 6 4 -2 1 1 2 2 2 -2 0 -3 -1 -2 -1 -3 -6 -3 -4 -3 -1 -2 2 3 3 2 1 2 1 1 2 4 7 7 6 3 3 8 10 10 10 12
4 1 4 5 5 -1 -3 -2 0 2 2 1 0 -2 -5 -4 -1 -4 -5 -2 -2 0 -2 -1 -4 1 3 0 -0 1 -0 1 -0 0 2 5 7 3 2 2 5 9 11 11 10
1 0 4 4 -0 -2 -3 0 3 2 3 2 0 -4 -5 -2 -2 -2 -3 -0 -0 0 -4 -2 -2 -1 1 2 1 1 0 -0 0 1 2 2 4 2 1 3 7 8 9 8 9
-4 -2 3 4 -3 -3 -1 0 1 2 2 2 1 1 -2 -1 -1 -2 -0 2 1 0 -1 -1 -4 -2 0 1 2 1 -0 -1 1 2 2 3 2 1 1 3 6 8 8 8 8
-5 -3 -1 -2 -2 -6 -5 -1 0 2 1 2 1 1 0 -0 -1 -2 -0 1 1 1 4 1 -2 -1 -1 -0 1 -1 -1 -1 -1 -1 -0 -0 -1 -1 -0 1 5 7 7 6 7
-5 -4 -2 -4 -2 -3 -3 -5 -1 0 0 -0 -0 1 -1 -2 -2 -2 -0 -0 0 2 -0 -1 -2 0 1 1 1 -1 -2 -1 -2 -2 -2 -2 -1 -1 -1 1 3 4 5 5 5
-5 -5 -6 -5 -3 -3 -2 -4 -0 -1 -2 -1 -1 -0 -1 -3 -3 -1 -1 -1 -2 -2 -1 -1 -1 0 0 2 2 -0 -1 -2 -1 -2 -2 -1 -2 -2 -1 0 2 3 3 3 3
-0 -1 -1 -3 -4 -4 -3 -2 -2 -1 -0 0 -1 -2 -2 0 -1 -1 -1 -2 -2 -2 -2 -3 -1 -0 0 3 2 1 -2 -2 -2 -2 -3 -3 -3 -2 -1 -0 -0 1 2 2 2
Height
837 834 831 828 825 821 818 814 811 807 803 799 796 794 792 789 784 778 779 779 777 773 769 765 764 762 764 763 763 764 770 744 732 741 737 728 731 722 722 724 722 720 718 717 717
838 835 831 828 825 821 817 813 809 805 801 797 793 791 788 787 784 784 783 779 775 771 765 763 762 761 758 754 757 754 753 726 722 724 729 726 726 722 722 725 721 720 716 716 718
837 834 831 828 824 820 816 812 807 802 798 794 790 789 787 786 781 782 783 779 774 768 761 759 757 758 755 750 745 742 723 716 719 720 723 725 726 720 720 724 720 721 715 715 716
837 834 831 827 823 819 814 809 805 801 797 791 787 785 785 784 785 786 782 778 773 768 763 760 759 755 750 744 741 736 719 726 722 720 724 723 720 718 721 713 709 712 711 709 713
837 834 829 825 820 816 811 806 801 797 794 790 785 783 784 785 789 785 781 776 773 769 767 765 761 756 748 744 740 735 717 723 722 722 720 721 717 721 714 709 708 709 711 712 710
837 832 827 822 817 812 807 802 798 793 790 788 788 786 785 791 789 786 781 776 773 770 769 768 764 760 752 747 743 728 725 720 719 719 720 719 715 721 691 705 706 708 709 707 710
836 831 826 821 815 810 805 800 795 791 786 784 786 787 789 795 792 788 783 779 775 772 769 765 764 762 751 745 737 737 732 722 710 713 712 715 711 702 687 701 704 704 702 704 704
836 831 826 821 814 809 803 797 793 789 786 785 784 786 792 793 792 787 784 780 775 773 769 763 761 758 754 744 736 735 734 719 699 705 703 718 681 680 688 698 697 700 702 697 697
835 831 825 821 816 810 802 795 791 789 785 785 785 786 799 793 788 789 786 781 775 772 768 763 758 756 750 749 746 736 728 717 712 697 699 701 673 683 681 684 688 691 697 696 693
834 830 824 820 817 812 803 795 792 791 787 787 789 794 798 798 791 789 785 781 776 772 769 767 766 766 768 771 779 752 746 734 718 705 697 689 670 673 678 680 683 684 687 691 691
833 828 823 820 817 813 804 798 800 800 800 810 811 807 806 801 794 789 786 782 779 778 782 774 778 781 772 768 761 760 760 755 740 729 725 697 696 699 684 675 679 677 682 686 685
835 829 823 819 817 814 810 811 819 819 816 808 808 807 804 800 797 792 789 789 786 785 781 780 787 770 765 760 760 761 765 758 733 718 714 708 689 682 681 685 684 677 674 676 680
835 829 824 818 816 814 813 815 816 816 818 812 808 806 803 800 800 794 791 789 788 786 785 794 775 768 762 759 760 757 764 753 741 721 715 712 697 686 677 674 674 675 672 671 672
834 829 825 818 817 815 814 814 811 813 819 821 813 810 806 803 800 794 791 792 790 792 782 785 769 764 761 755 750 756 739 734 731 733 727 698 691 673 666 660 661 662 667 661 667
834 829 825 819 821 818 818 812 811 813 850 822 817 811 810 813 806 795 792 789 792 787 791 782 772 765 758 750 744 745 735 735 734 735 730 720 717 685 660 649 656 655 655 654 657
834 831 827 821 818 817 813 812 813 835 880 827 822 819 815 808 804 800 795 791 788 785 778 779 764 761 754 745 742 732 730 726 716 724 719 706 707 684 668 650 642 642 644 648 654
833 831 826 823 821 814 811 813 838 859 834 830 826 821 819 811 805 803 800 802 811 805 789 768 762 755 746 752 737 737 735 755 732 730 694 683 697 676 651 644 639 635 635 637 642
831 830 828 825 820 814 812 825 854 841 843 832 827 824 822 815 811 808 806 813 811 816 799 796 775 760 748 758 748 738 731 741 718 708 679 667 690 661 645 635 635 637 635 637 639
829 829 827 825 819 815 823 859 861 855 844 837 832 832 829 819 823 821 822 837 820 816 808 797 775 755 747 742 749 733 733 723 716 695 687 658 651 639 631 630 624 629 633 635 636
832 831 830 827 822 818 837 842 847 843 839 838 852 837 849 833 833 826 828 828 816 811 805 797 788 752 741 739 742 743 731 730 722 709 680 642 639 654 667 666 643 626 627 630 627
835 838 834 829 826 832 860 859 848 840 839 841 843 851 859 852 832 841 839 815 809 797 800 796 804 762 746 753 752 740 743 736 732 724 706 658 646 684 682 669 646 629 623 626 627
840 849 839 834 844 850 860 850 842 841 838 839 840 852 857 838 836 834 830 813 801 799 807 795 795 778 754 743 748 746 745 740 730 713 703 694 676 687 680 662 636 631 630 630 634
850 850 842 839 863 862 855 849 844 841 838 837 837 836 842 837 837 829 817 800 798 797 797 790 799 786 759 748 746 749 749 738 714 713 708 695 698 696 685 666 648 635 635 635 633
852 861 850 849 857 871 871 854 846 838 837 837 837 835 836 831 830 829 818 803 798 794 780 784 791 787 783 771 761 762 758 751 741 737 732 731 729 716 699 683 656 642 644 643 636
858 867 864 869 858 862 862 868 852 845 843 841 839 834 841 837 831 827 815 810 794 789 791 792 792 775 767 761 756 767 772 758 754 755 752 743 732 725 711 691 674 663 658 654 650
863 868 866 868 862 862 860 865 850 850 851 843 841 835 838 843 837 823 821 813 811 798 796 792 786 774 768 754 751 761 769 766 758 754 747 740 732 731 719 703 688 671 675 668 672
857 858 859 863 865 866 861 855 855 850 843 841 840 840 833 824 821 814 814 811 809 810 804 803 791 779 766 748 747 758 774 771 767 763 762 753 758 744 727 714 700 691 688 685 680
Wind_Speed
20 21 21 22 23 23 24 25 25 25 25 25 23 22 22 20 22 8 3 10 15 21 20 18 18 9 15 7 5 4 5 16 23 14 12 3 6 3 1 5 5 6 7 4 27
21 22 22 23 24 25 25 26 26 26 25 24 22 21 19 17 20 5 15 17 15 18 16 15 7 5 8 12 6 11 9 18 1 17 7 5 8 4 1 6 4 1 1 9 29
21 23 23 24 25 26 27 27 27 26 26 26 24 21 18 15 1 1 20 20 18 22 12 10 11 7 15 11 12 13 24 20 1 6 8 10 6 2 3 6 6 8 8 13 20
22 23 24 25 26 27 27 28 27 26 27 27 20 16 11 11 5 14 23 23 18 21 16 6 2 6 8 19 17 17 25 20 10 4 6 6 2 6 9 13 4 6 8 18 21
22 23 25 26 27 29 29 28 27 27 22 25 14 7 1 4 1 23 23 24 22 24 17 7 6 7 18 6 12 19 27 13 11 17 20 10 15 7 13 8 6 5 8 16 18
23 25 26 28 29 29 29 28 29 27 19 19 7 4 4 6 10 26 27 26 27 19 13 11 6 11 12 10 14 10 16 20 20 20 15 11 15 6 22 10 11 6 9 16 19
24 26 28 29 30 30 28 30 31 24 18 14 3 4 5 5 20 22 29 28 26 18 6 14 15 9 8 13 7 12 17 20 24 18 14 10 25 30 19 3 6 9 12 15 18
25 26 28 29 30 29 29 33 25 13 14 11 4 2 4 15 25 24 27 29 16 20 19 20 18 7 5 10 15 19 11 13 8 21 25 11 31 22 26 12 17 15 8 16 19
25 26 28 27 27 26 30 29 15 20 10 12 5 4 5 21 27 22 25 21 14 18 21 15 12 4 5 6 9 9 19 24 15 11 9 24 38 10 9 18 20 20 13 12 17
26 28 29 25 22 24 31 16 6 31 6 6 22 4 13 13 22 20 25 35 5 9 7 6 5 3 5 5 5 16 14 11 20 11 14 19 31 23 5 8 12 14 16 16 18
28 30 28 24 20 22 32 7 9 7 13 3 2 3 6 20 19 10 16 22 7 5 5 5 3 7 6 5 10 14 15 18 19 14 17 22 25 19 14 17 10 14 13 15 18
28 29 26 24 15 19 26 8 5 4 4 5 2 3 12 20 5 13 19 7 5 7 7 6 7 6 9 12 14 13 13 16 17 15 14 20 25 20 20 16 11 11 14 17 14
28 26 24 24 8 21 11 11 10 6 1 5 3 3 6 10 5 15 8 9 3 6 6 4 14 14 15 18 18 13 9 14 13 11 13 14 22 17 13 19 21 20 18 11 18
26 23 22 22 3 15 3 26 7 9 3 10 6 4 8 10 4 25 9 2 5 4 5 6 8 19 22 20 15 14 6 11 15 10 9 8 18 21 11 18 19 19 17 19 14
25 19 20 18 12 5 21 12 8 3 4 15 6 7 14 6 9 5 14 4 7 11 3 13 17 23 21 11 14 9 14 17 17 14 14 13 8 6 5 17 16 18 21 22 16
21 16 20 20 15 22 21 7 2 5 3 6 5 15 15 8 14 7 10 2 6 6 14 13 21 8 6 13 16 22 15 16 15 10 12 11 10 6 5 8 16 16 20 20 15
15 17 21 17 13 26 10 3 4 6 5 8 11 14 15 13 14 13 18 14 1 10 14 18 15 7 6 18 8 8 12 5 2 2 11 9 9 14 15 18 13 13 16 21 19
8 12 24 28 25 25 4 5 10 3 4 8 10 14 5 11 13 14 17 8 3 2 6 10 22 6 11 10 9 19 4 3 6 3 7 12 5 7 24 13 14 7 9 10 15
9 5 25 28 23 20 5 6 3 3 5 7 11 4 4 16 6 7 5 3 5 1 6 8 10 18 18 17 8 7 8 12 5 11 4 4 7 5 17 23 22 16 9 13 13
6 4 18 25 17 13 5 6 3 2 4 3 2 3 5 9 9 13 4 3 6 6 3 3 9 9 16 10 3 7 9 6 3 5 5 3 4 5 17 17 15 10 11 10 15
5 3 16 23 7 5 4 0 2 5 2 2 3 4 5 4 9 4 5 9 3 13 1 7 3 12 12 4 10 6 6 4 4 3 3 4 4 13 17 21 13 9 7 6 9
4 3 16 19 4 2 2 5 4 4 2 4 3 5 4 6 5 3 5 6 8 12 8 2 3 6 16 10 4 6 11 12 4 2 3 3 1 17 21 20 10 6 7 7 2
2 2 8 8 3 3 5 3 3 3 4 3 3 3 2 5 6 4 5 9 10 12 4 2 2 6 9 2 2 7 19 24 2 1 5 4 5 17 23 21 12 12 16 16 12
3 3 3 4 2 5 1 3 4 5 4 3 6 4 6 8 5 7 9 9 21 8 17 8 3 5 5 12 10 18 24 19 16 6 8 6 12 22 26 24 19 17 17 18 21
4 1 2 3 2 2 2 1 4 6 4 3 3 4 5 5 7 4 6 19 11 7 7 2 4 8 14 9 2 15 22 16 18 14 8 12 10 23 24 24 17 16 18 20 22
3 3 3 2 3 3 2 3 4 3 3 5 4 11 7 4 6 16 16 16 8 8 4 2 4 11 2 5 7 8 18 18 11 20 11 14 9 24 22 17 16 24 20 20 17
2 2 1 3 0 2 2 2 4 6 4 7 9 9 7 6 8 19 15 14 11 6 4 3 6 4 4 9 9 3 19 20 11 17 16 16 17 13 19 14 20 22 20 19 18
Wind_Direction
0 357 354 352 350 347 344 341 339 337 333 329 327 327 329 332 325 21 357 326 311 313 310 301 284 278 211 211 195 142 235 245 235 212 226 234 201 182 199 220 192 205 158 255 155
359 357 354 351 349 347 343 340 338 334 330 324 321 321 325 329 329 18 3 348 337 328 306 276 249 218 210 218 204 201 223 241 252 220 218 207 194 213 217 214 224 201 214 146 153
359 356 354 350 347 345 341 338 335 332 328 321 315 316 320 318 54 36 352 351 347 351 333 291 231 215 225 220 212 220 233 222 254 223 222 247 264 250 210 240 206 199 198 174 172
358 355 351 349 346 344 340 336 335 333 333 331 313 313 321 318 22 351 350 352 351 354 9 331 261 229 241 225 221 255 247 248 250 237 272 240 261 246 220 234 256 239 223 177 186
358 354 351 349 347 343 340 338 336 334 332 350 339 324 330 50 26 354 351 7 9 7 5 359 303 255 249 235 248 243 253 270 258 250 254 267 256 254 255 247 260 286 200 203 190
358 354 351 348 346 343 342 339 338 334 334 334 3 40 64 67 348 2 9 3 0 356 345 332 292 293 286 252 253 281 272 260 260 263 256 263 265 270 248 218 241 239 222 198 207
358 353 350 348 346 343 343 340 339 336 344 352 139 39 59 16 5 8 10 358 353 352 316 314 303 289 309 297 285 303 301 283 260 257 250 243 261 243 249 255 251 234 206 221 206
356 353 350 349 348 346 345 341 343 359 355 24 129 47 102 27 2 16 3 356 0 346 326 314 317 254 230 269 266 276 260 266 282 233 243 247 262 248 238 210 231 236 230 210 225
355 353 350 350 352 351 345 344 2 14 73 60 78 67 0 345 360 354 3 340 329 333 322 342 340 269 297 270 280 243 267 272 287 240 212 206 249 236 188 213 228 225 215 227 216
355 352 350 352 356 357 357 355 55 38 74 57 34 59 2 337 330 344 359 349 319 328 342 347 325 316 349 9 288 308 300 293 272 274 284 232 241 239 227 202 221 220 221 206 219
354 352 351 353 353 7 19 20 12 359 31 63 341 151 299 331 331 336 344 335 353 355 352 323 326 289 281 283 310 305 289 294 293 287 299 278 270 285 291 241 230 224 211 216 209
353 352 352 350 354 5 32 69 129 248 343 343 233 257 347 341 315 336 346 0 343 318 321 330 284 268 320 307 301 296 295 283 284 269 248 265 271 272 247 268 284 264 222 206 207
355 355 352 349 357 4 45 37 355 183 97 334 321 353 339 348 327 337 360 327 294 292 307 231 273 301 302 306 300 287 254 273 262 283 276 274 280 274 248 249 252 259 269 209 195
356 358 358 3 26 347 16 337 328 178 86 357 339 350 355 324 345 325 339 275 306 267 285 279 278 312 306 299 293 284 300 298 294 278 267 206 263 264 264 231 227 235 243 236 198
357 5 7 15 345 8 327 347 129 117 45 318 320 318 332 3 284 317 332 308 266 291 60 287 305 309 300 296 307 280 300 294 280 270 276 243 274 268 237 222 219 227 221 227 209
0 9 5 6 354 347 347 120 114 46 313 335 325 332 336 327 331 316 322 27 274 299 299 293 298 273 268 308 309 288 284 296 266 239 248 232 216 240 225 243 216 216 213 211 197
10 24 16 9 337 349 356 68 38 71 352 330 321 330 320 342 333 333 332 325 305 346 335 328 318 321 290 337 294 303 282 299 276 217 244 198 209 231 204 245 236 219 213 208 215
355 15 23 10 353 355 32 54 63 280 287 302 308 314 320 358 326 335 330 332 22 346 310 341 324 359 317 302 314 308 279 215 307 244 255 245 233 245 223 233 248 228 218 207 205
357 6 15 4 357 355 66 51 160 252 281 309 315 324 295 335 331 352 315 241 266 313 354 320 298 303 303 336 314 336 322 291 269 255 250 226 260 298 208 217 229 241 199 195 200
12 16 11 358 356 27 67 101 202 230 297 294 320 350 301 328 333 345 326 235 289 214 159 273 294 308 328 336 189 305 314 337 318 307 296 240 241 37 352 330 306 222 206 210 207
24 40 354 360 26 42 84 206 286 271 288 279 275 283 243 297 312 301 255 288 240 318 158 283 228 298 325 343 307 330 336 342 257 235 283 305 84 1 334 313 273 243 200 211 186
43 34 355 2 42 44 44 328 304 285 290 281 222 201 221 318 296 278 260 288 304 327 308 259 274 287 301 296 147 336 352 331 259 324 280 261 36 359 338 332 355 73 73 68 287
77 298 4 13 65 353 326 302 251 291 317 293 275 214 213 322 318 238 286 292 311 330 300 315 283 305 327 9 98 342 354 353 323 231 356 3 337 348 344 347 342 74 70 67 59
72 22 340 43 64 124 358 289 305 296 283 316 282 295 326 306 216 279 298 305 317 287 324 357 257 230 264 284 310 17 4 18 23 23 322 20 327 343 345 347 346 50 53 58 56
37 304 172 319 5 357 178 296 302 348 350 320 302 306 333 299 307 225 301 325 303 302 324 66 279 300 304 292 254 45 10 -0 27 6 30 323 336 356 345 347 348 40 39 50 46
96 65 356 277 314 358 303 264 301 309 229 292 246 310 303 250 221 294 313 313 268 316 312 344 293 321 292 314 342 51 11 358 1 20 7 355 12 345 340 329 354 38 26 41 42
93 110 137 277 66 79 245 259 273 315 280 242 284 302 299 280 291 285 273 263 252 313 304 330 322 316 280 323 315 2 11 348 348 32 9 13 329 323 337 343 10 20 19 25 30